sat.trackr.live / text

‹ back to catalog

TIANHUI 5B

NORAD 58201 · 2023-168C

PAYLOAD ACTIVE UNKNOWN

§ Identity

Operator
Country
PRC
Launch date
2023-10-31
Launch site
TAISC
Launch vehicle
Mass (kg)
RCS (m²)

External: N2YO · Heavens-Above · Gunter

§ Orbital elements

Epoch: 2026-09-21T11:12:07.851456Z

Period
96.80 min
Inclination
97.8212°
Eccentricity
0.0002143
Mean motion
14.87575636 rev/d
Perigee alt
604.0 km
Apogee alt
607.0 km
Semi-major
6,983.7 km
B*
3.0387e-5
RAAN
270.4819°
Arg perigee
98.2827°
Mean anomaly
261.8633°
Rev number
15,691

§ Raw data

TIANHUI 5B1 58201U 23168C   26264.46675754  .00000222  00000+0  30387-4 0  99902 58201  97.8212 270.4819 0002143  98.2827 261.8633 14.87575636156917

JSON: /api/v1/satellites/58201 · /tle

For live sub-satellite position, see the globe view (requires WebGL).

§ Visibility from observer

Set your observer location to see the next 7 days of passes ≥ 10°. The values pass through the URL so the page stays shareable.

No JS? Fill the form by hand. The geolocation button needs JavaScript.